Terminal Aerodrome Forecast
Issued by NWS La Crosse, WI

Home | Current Version | Previous Version | Text Only | Print | Product List | Glossary On
Versions: 1 2 3 4 5 6 7 8 9 10 11 12 13 14 15 16 17 18 19 20 21 22 23 24 25 26 27 28 29 30 31 32 33 34 35 36 37 38 39 40 41 42 43 44 45 46 47 48 49 50
000
FTUS43 KARX 221508 AAB
TAFRST
TAF AMD
KRST 221508Z 2215/2312 15015KT 1 1/2SM -RA BR OVC006
      TEMPO 2217/2221 3SM -RA BR OVC004
     FM222100 11014KT 3SM -RA BR OVC006
     FM230000 09012KT 2SM -RASN BR OVC005
     FM230600 06015KT 1SM -SN BR OVC003=

USA.gov is the U.S. government's official web portal to all federal, state and local government web resources and services.